Riverside, CA

10:00 PM PDT on September 20, 2017 (GMT -0700)
Riverside Municipal

Weather History for KRAL - December, 2012

Change the Weather History Date:

Wednesday, December 26, 2012

  Actual Average Record
Temperature  
Mean Temperature 51 °F 54 °F  
Max Temperature 59 °F 66 °F 86 °F (1980)
Min Temperature 42 °F 42 °F 21 °F (1911)
Degree Days  
Heating Degree Days 14 11  
Month to date heating degree days 242 272  
Since 1 July heating degree days 354 472  
Cooling Degree Days 0 0  
Month to date cooling degree days 0 0  
Year to date cooling degree days 2229 1754  
Moisture  
Dew Point 42 °F    
Average Humidity 77    
Maximum Humidity 100    
Minimum Humidity 53    
Precipitation  
Precipitation 0.10 in 0.07 in 1.59 in (1921)
Month to date precipitation 1.19 1.09  
Year to date precipitation 4.57 11.96  
Since 1 July precipitation 1.72  
Snow  
Snow 0.00 in - - ()
Month to date snowfall 0.0  
Year to date snowfall 0.0  
Snow Depth 0.00 in    
Sea Level Pressure  
Sea Level Pressure 29.93 in    
Wind  
Wind Speed 6 mph (WSW)    
Max Wind Speed 17 mph    
Max Gust Speed 23 mph    
Visibility 8 miles    
Events Rain    
T = Trace of Precipitation, MM = Missing Value Source: NWS Daily Summary

Daily Weather History Graph

Daily Weather History Graph

Search for Another Location

Airport or City:

Trip Planner

Search our weather history database for the weather conditions in past years. The results will help you decide how hot, cold, wet, or windy it might be!

Date:

Astronomy

Dec. 26, 2012 Rise Set
Actual Time 6:53 AM PST 4:47 PM PST
Civil Twilight 6:25 AM PST 5:15 PM PST
Nautical Twilight 5:54 AM PST 5:46 PM PST
Astronomical Twilight 5:24 AM PST 6:17 PM PST
Moon 3:43 PM PST (12/26) 5:22 AM PST (12/26)
Length of Visible Light 10h 49m
Length of Day
9h 54m
Waxing Gibbous, 98% of the Moon is Illuminated
Dec 26
Waxing Gibbous
Dec 28
Full
Jan 4
Last Quarter
Jan 11
New
Jan 18
First Quarter

Hourly Weather History & Observations

Time (PST) Temp. Windchill Dew Point Humidity Pressure Visibility Wind Dir Wind Speed Gust Speed Precip Events Conditions
12:53 AM 42.1 °F - 35.1 °F 76% 29.97 in 10.0 mi Calm Calm - N/A   Mostly Cloudy
1:53 AM 43.0 °F 41.3 °F 34.0 °F 71% 29.96 in 10.0 mi NE 3.5 mph - N/A   Overcast
2:53 AM 45.0 °F - 34.0 °F 65% 29.95 in 10.0 mi Calm Calm - N/A   Overcast
3:53 AM 46.0 °F 43.9 °F 37.0 °F 71% 29.92 in 10.0 mi NE 4.6 mph - N/A   Overcast
4:53 AM 46.0 °F - 39.0 °F 76% 29.91 in 10.0 mi Calm Calm - N/A   Overcast
5:53 AM 46.9 °F - 41.0 °F 80% 29.91 in 9.0 mi Calm Calm - 0.00 in Rain Light Rain
6:53 AM 45.0 °F - 44.1 °F 97% 29.91 in 4.0 mi Calm Calm - 0.05 in Rain Rain
7:17 AM 44.6 °F - 44.6 °F 100% 29.93 in 3.0 mi Calm Calm - 0.02 in Rain Light Rain
7:24 AM 44.6 °F - 44.6 °F 100% 29.93 in 4.0 mi Calm Calm - 0.02 in Rain Light Rain
7:53 AM 45.0 °F - 44.1 °F 97% 29.91 in 5.0 mi Calm Calm - 0.02 in   Overcast
8:11 AM 46.4 °F - 44.6 °F 93% 29.94 in 7.0 mi Calm Calm - N/A   Overcast
8:34 AM 46.4 °F 44.3 °F 44.6 °F 93% 29.95 in 1.8 mi South 4.6 mph - 0.02 in Rain Rain
8:40 AM 46.4 °F - 44.6 °F 93% 29.96 in 3.0 mi Calm Calm - 0.03 in Rain Light Rain
8:53 AM 46.9 °F - 45.0 °F 93% 29.94 in 4.0 mi Calm Calm - 0.03 in Rain Light Rain
9:04 AM 46.4 °F - 46.4 °F 100% 29.95 in 5.0 mi Calm Calm - 0.00 in   Overcast
9:53 AM 52.0 °F - 48.0 °F 86% 29.95 in 10.0 mi Variable 3.5 mph - 0.00 in   Mostly Cloudy
10:53 AM 54.0 °F - 45.0 °F 72% 29.94 in 10.0 mi WSW 13.8 mph 21.9 mph N/A   Mostly Cloudy
11:01 AM 53.6 °F - 46.4 °F 77% 29.96 in 10.0 mi WSW 10.4 mph - N/A   Mostly Cloudy
11:53 AM 55.0 °F - 45.0 °F 69% 29.92 in 10.0 mi West 9.2 mph - N/A   Mostly Cloudy
12:07 PM 55.4 °F - 44.6 °F 67% 29.93 in 10.0 mi WSW 10.4 mph - N/A   Overcast
12:53 PM 55.9 °F - 44.1 °F 64% 29.89 in 10.0 mi SW 12.7 mph - N/A   Mostly Cloudy
1:53 PM 57.0 °F - 41.0 °F 55% 29.88 in 10.0 mi West 8.1 mph - N/A   Mostly Cloudy
2:53 PM 59.0 °F - 42.1 °F 53% 29.88 in 10.0 mi WSW 13.8 mph 18.4 mph N/A   Mostly Cloudy
3:53 PM 57.0 °F - 41.0 °F 55% 29.90 in 10.0 mi WSW 17.3 mph 20.7 mph N/A   Mostly Cloudy
4:53 PM 55.0 °F - 39.0 °F 55% 29.91 in 10.0 mi WSW 11.5 mph - N/A   Clear
5:53 PM 53.1 °F - 42.1 °F 66% 29.92 in 10.0 mi WSW 4.6 mph - N/A   Partly Cloudy
6:53 PM 51.1 °F - 41.0 °F 68% 29.94 in 10.0 mi Calm Calm - N/A   Clear
7:53 PM 50.0 °F - 39.9 °F 68% 29.95 in 10.0 mi Calm Calm - N/A   Clear
8:53 PM 48.0 °F - 39.9 °F 74% 29.95 in 10.0 mi East 3.5 mph - N/A   Clear
9:53 PM 46.0 °F - 39.9 °F 79% 29.95 in 10.0 mi Calm Calm - N/A   Clear
10:53 PM 45.0 °F - 39.9 °F 82% 29.95 in 10.0 mi Calm Calm - N/A   Clear
11:53 PM 44.1 °F - 39.9 °F 85% 29.94 in 10.0 mi Calm Calm - N/A   Clear